Location: Unspecified
(51.0950°N, 12.9690°E)
Time: 14:26:20
(UTC+00:00)

PCSat - Pass Details

Date: 24 April 2024
Orbit: 783 x 792 km, 67.1° (Epoch: 24 May)

Event Time Altitude Azimuth Distance (km) Brightness Sun altitude
Rises 21:35:15 0° 294° (WNW) 3,292 13.5 -22.7°
Reaches altitude 10° 21:38:45 10° 317° (NW) 2,365 13.0 -22.9°
Maximum altitude 21:41:52 15° 353° (N) 2,025 12.6 -23.1°
Drops below altitude 10° 21:44:59 10° 28° (NNE) 2,369 12.5 -23.3°
Sets 21:48:30 0° 51° (NE) 3,300 13.0 -23.5°
